Location: Newark
(36.2667°N, 50.0000°E)
Time: 22:33:21
(UTC+00:00)

Hubble Space Telescope - Pass Details

Date: 03 October 2020
Orbit: 536 x 540 km, 28.5° (Epoch: 26 October)

Event Time Altitude Azimuth Distance (km) Brightness Sun altitude
Exits shadow 00:08:49 13° 128° (SE) 1,621 3.5 -30.3°
Drops below altitude 10° 00:09:18 10° 124° (SE) 1,778 3.8 -30.2°
Sets 00:11:47 0° 112° (ESE) 2,667 5.0 -29.7°
